STARLINK-1327, 45555

Orbit data source: Space-Track

STARLINK-1327, 45555 is a payload satellite owned by SpaceX/Seattle (US) in LEO that was launched on Wed, 22 Apr 2020 UTC via an FALCON 9 launch vehicle from the Air Force Eastern Test Range (AFETR). Payload-class satellites include a variety of spacecraft equipped with specific instruments for various scientific and technological missions. These include communications satellites like Starlink; space stations such as the ISS; scientific satellites like the Hubble; Earth observation satellites from companies like Planet Labs, Umbra, and HawkEye 360; GPS; miniature CubeSats for education and research; and military/defense satellites.

Loading next visibility...
Identifier
45555, 2020-025AA
Orbit
LEO
Country
Flag of USUS
Related business
Manufacturer
SpaceX/Seattle
Mission
Partially operational Commercial Communications
Bus & Motor
STARLINK, Unknown motor
Mass
260 kg wet, ~248 kg dry
Launch date (UTC)
2020-04-22 (6 years ago)
Launch vehicle
FALCON 9
Launch site
Air Force Eastern Test Range (AFETR)
Object type
Payload
Rocket body
Debris
Shape & HBR
Box + 1 Pan, 10.1 m
Radar Cross Section
13.562 m², Large (>1 m²)

Expand to show TLE details & history
Last TLE update: 20 hours ago

TLE from 20 hours ago
0 STARLINK-1327
1 45555U 20025AA  26123.28113875  .00124235  00000-0  13073-2 0  9995
2 45555  53.0412 161.1897 0004947 333.8892  26.1872 15.63412793334168
Epoch: 2026-05-03T06:44Z
TLE epoch observation values (Epoch: 2026-05-03T06:44:50.387Z)
Latitude
-0°
Longitude
-161.20719°
Altitude
375.708 km
Speed
7.687 km/s
True Right ascension
10h 44m 45s
True Declination
0° 00' 00"
Sunlit
Object was in full shadow at epoch
Visualization orbit readout
Latitude
Unknown
Longitude
Unknown
Altitude
Unknown
Speed
Unknown
Apparent Right ascension
Unknown
Apparent Declination
Unknown
Sunlit
N/A
Visualization observer readout
Local Sidereal Time
10:11:51
Azimuth
Unknown
Elevation
Unknown
Doppler factor
Unknown
Orbital elements
Apogee altitude
381.429 km
Perigee altitude
374.745 km
Semi-major axis
6,756.224 km
Eccentricity
0.00049
Inclination
53.0412°
RAAN
161.1897°
Arg. of periapsis
333.8892°
True anomaly
26.21223°
Mean anomaly
26.1872°
Eccentric anomaly
26.19971°
Mean motion
3.90829 °/min
Orbital period
92.11 mins
BSTAR
0.0013073
Loading maneuver chart data...
Computing Atmospheric mass density...

Documentation

Showing up to 5 results
|